Location: Brest
(52.1000°N, 23.7000°E)
Time: 00:45:38
(UTC+03:00)

GENESIS II - Visible Passes

Search period start: 29 March 2017 00:00
Search period end: 08 April 2017 00:00
Orbit: 491 x 545 km, 64.5° (Epoch: 27 March)

Date Brightness Start Highest point End Pass type
(mag) Time Alt. Az. Time Alt. Az. Time Alt. Az.
29 Mar 4.9 05:55:25 10° SSW 05:59:24 55° SE 06:03:24 10° NE visible
30 Mar 4.8 05:40:55 13° SSW 05:44:24 57° SE 05:48:25 10° NE visible
31 Mar 4.7 05:26:36 19° SSW 05:29:23 59° SE 05:33:25 10° NE visible
01 Apr 4.6 05:12:13 26° SSW 05:14:22 61° SE 05:18:24 10° NE visible
02 Apr 4.6 04:57:46 34° SSW 04:59:22 63° SE 05:03:24 10° NE visible
03 Apr 4.5 04:43:15 44° S 04:44:20 65° SE 04:48:24 10° NE visible
03 Apr 5.6 06:18:49 10° W 06:22:24 28° NNW 06:25:59 10° NNE visible
04 Apr 4.4 04:28:40 56° S 04:29:19 67° SE 04:33:23 10° NE visible
04 Apr 5.7 06:03:50 10° W 06:07:24 28° NNW 06:10:58 10° NNE visible
05 Apr 4.3 04:14:03 67° SSE 04:14:17 69° SE 04:18:22 10° NE visible
05 Apr 5.7 05:49:04 11° W 05:52:23 27° NNW 05:55:56 10° NNE visible
06 Apr 4.3 03:59:23 71° ESE 03:59:23 71° ESE 04:03:21 10° NE visible
06 Apr 5.8 05:34:24 13° W 05:37:23 27° NNW 05:40:54 10° NNE visible
07 Apr 4.5 03:44:41 65° ENE 03:44:41 65° ENE 03:48:19 10° NE visible
07 Apr 5.8 05:19:42 14° W 05:22:22 26° NNW 05:25:52 10° NNE visible
